Regional Weather Roundup
Issued by NWS

Home | Current Version | Previous Version | Graphics & Text | Print | Product List | Glossary On
Versions: 1 2 3 4 5 6 7 8 9 10 11 12 13 14 15 16 17 18 19 20 21 22 23 24 25 26 27 28 29 30 31 32 33 34 35 36 37 38 39 40 41 42 43 44 45 46 47 48 49 50
000
ASUS45 KBOU 232007
RWRCO

WEATHER ROUNDUP FOR COLORADO
NATIONAL WEATHER SERVICE DENVER/BOULDER CO
200 PM MDT WED AUG 23 2017

NOTE: "FAIR" INDICATES FEW OR NO CLOUDS BELOW 12000 FEET WITH NO
SIGNIFICANT WEATHER AND/OR OBSTRUCTIONS TO VISIBILITY.

COZ001>005-013-030-031-232100-
...NORTHWEST COLORADO...

CITY           SKY/WX    TMP DP  RH WIND       PRES   REMARKS
CRAIG          FAIR      83  36  18 VRB6      30.23F
HAYDEN         FAIR      78  40  25 VRB5      30.27F
MEEKER         PTSUNNY   75  46  35 SW9       30.27R
RABBIT EARS PA MOCLDY    55  37  50 W6        30.57S THUNDER
STEAMBOAT SPGS FAIR      77  39  25 SW8       30.27F
WALDEN         FAIR      75  32  20 W5        30.36F
$$

COZ006>008-011-232100-
...WEST CENTRAL VALLEYS...

CITY           SKY/WX    TMP DP  RH WIND       PRES   REMARKS
GRAND JUNCTION FAIR      87  46  24 NW6       30.14F
MONTROSE       FAIR      83  43  24 VRB5      30.23F
EAGLE          FAIR      80  42  25 SW16      30.27F
RIFLE          FAIR      82  45  27 S13       30.17F
DELTA          FAIR      89  37  16 SW8       30.17F
NUCLA          FAIR      84  36  17 NW9       30.26F
$$

COZ017>023-064>068-232100-
...SOUTHWEST COLORADO...

CITY           SKY/WX    TMP DP  RH WIND       PRES   REMARKS
DURANGO        FAIR      81  40  23 SW9       30.27F
CORTEZ         FAIR      81  46  29 S10       30.23F
PAGOSA SPRINGS FAIR      76  38  25 W5        30.35F
TELLURIDE      FAIR      70  32  24 W8G17     30.49F
WOLF CREEK PAS FAIR      55  37  50 SW6       30.72S
$$

COZ009-010-012-014-032>034-037-058>063-232100-
...CENTRAL COLORADO...

CITY           SKY/WX    TMP DP  RH WIND       PRES   REMARKS
ASPEN          LGT RAIN  63  47  55 W17G23    30.37R
BUENA VISTA    PTSUNNY   74  36  25 NW8       30.35R
COPPER MTN     FAIR      61  36  39 NW6       30.65F
BERTHOUD PASS  CLOUDY    46  43  87 S12G17    30.70S THUNDER
COTTONWOOD PAS CLOUDY    68  37  32 E10G16    30.48F
GUNNISON       FAIR      73  42  32 N10       30.34F
KREMMLING      FAIR      81  36  19 NW5       30.31F
LEADVILLE      CLOUDY    56  37  49 SW17G24   30.49R THUNDER
MONARCH PASS   FAIR      59  34  38 W22       30.75F
SALIDA         CLOUDY    74  50  43 N13G18    30.37F
SUNLIGHT       PTSUNNY   55  37  50 S8        30.62S
WILKERSON PASS CLOUDY    61  32  33 S7        30.63F
$$

COZ069>075-232100-
...SAN LUIS VALLEY/SANGRE DE CRISTO MOUNTAINS...

CITY           SKY/WX    TMP DP  RH WIND       PRES   REMARKS
ALAMOSA        FAIR      77  43  29 N6        30.33F
DEL NORTE      FAIR      74  47  37 NE6       30.37F
LA VETA PASS   NOT AVBL
SAGUACHE         N/A    N/A N/A N/A MISG        N/A
$$

COZ035-036-038>040-232100-
...NORTHERN COLORADO FRONT RANGE...

CITY           SKY/WX    TMP DP  RH WIND       PRES   REMARKS
DENVER INTL AP FAIR      88  38  17 VRB5      30.14F
DMNS CITY PARK   N/A     87  39  18 S7        30.13F
AURORA         MOSUNNY   87  39  18 CALM      30.17F
FRONT RANGE AP MOSUNNY   88  41  19 NE5       30.16F
ERIE MUNI ARPT FAIR      87  35  15 NE3       30.18F
BOULDER MUN AP FAIR      84  37  18 NE6       30.14F
CENTENNIAL     FAIR      86  39  19 VRB3      30.18F
BROOMFIELD     PTSUNNY   86  39  19 SE7       30.19F
FORT COLLINS   FAIR      84  49  29 SW5       30.13F
LONGMONT       FAIR      91  42  18 E5        30.14F
$$

COZ041-046-047-076>085-087-088-232100-
...PIKES PEAK/PALMER DIVIDE AND SOUTHERN FOOTHILLS...

CITY           SKY/WX    TMP DP  RH WIND       PRES   REMARKS
COLO. SPRINGS  FAIR      76  49  38 S7        30.24F
A. F. ACADEMY  SUNNY     81  51  35 S18       30.22F
SCHRIEVER AFB  FAIR      74  49  41 S9        30.24F
CHEYENNE MTN   LGT RAIN  69  49  47 S5        30.23F
ELLICOTT       FAIR     N/A N/A N/A VRB5      30.22F
FALCON         FAIR      79  45  30 SE9G18    30.29F
FORT CARSON    FAIR      79  47  32 NE3       30.20F
LIMON          FAIR      83  53  35 S14G22    30.17F
MONUMENT HILL  FAIR      77  43  29 NE3       30.29F
CANON CITY     SUNNY     86  55  35 E10       30.15F
WALSENBURG     FAIR      88  45  22 E13       30.18F
TRINIDAD       FAIR      83  46  27 E6        30.18F
$$

COZ042>045-048>051-090-091-232100-
...NORTHEAST COLORADO...

CITY           SKY/WX    TMP DP  RH WIND       PRES   REMARKS
GREELEY ARPT   FAIR      88  47  24 SE3       30.11F
AKRON          FAIR      90  47  22 SW8G17    30.09F
BURLINGTON     FAIR      84  61  45 S20G25    30.13F
WRAY           FAIR      84  59  42 S14G24    30.09F
YUMA           FAIR      82  61  47 S12       30.08F
STERLING       FAIR      88  55  33 CALM      30.04F
HOLYOKE        FAIR      84  63  48 S14       30.09F
FORT MORGAN    FAIR      89  45  22 SE7       30.09F
$$

COZ086-089-092>099-232100-
...SOUTHEAST COLORADO...

CITY           SKY/WX    TMP DP  RH WIND       PRES   REMARKS
PUEBLO         FAIR      86  49  27 SE5       30.11F
LA JUNTA       FAIR      89  57  33 SE12G18   30.09F
LAMAR          FAIR      85  60  42 S16G23    30.09F
SPRINGFIELD      N/A     77  62  59 S18       30.16F
$$



USA.gov is the U.S. government's official web portal to all federal, state and local government web resources and services.